Simultaneous Nadir Overpasses (SNOs) Predictions

Prediction of SNOs between GOES-16 and METOP-A Satellite Orbit:

Table of predicted SNOs for the next 14.0 days since TLE Epoch: 3/13/2021
Index Date Time (GOES-16) GOES-16 Lat,Lon METOP-A Lat,Lon Distance(km) Time Diff (sec)
1 03/13/2021 13:17:56 0.02, -75.21 0.03, -75.32 11.89 8
2 03/16/2021 01:15:04 -0.02, -75.19 0.03, -74.97 25.16 80
3 03/17/2021 13:36:35 0.03, -75.24 1.00, -79.57 494.05 80
4 03/18/2021 13:13:16 0.02, -75.24 -0.13, -74.60 73.84 80
5 03/20/2021 01:34:56 -0.02, -75.22 -0.88, -79.24 456.16 80
6 03/21/2021 01:11:36 -0.02, -75.23 0.18, -74.25 111.82 80
7 03/22/2021 13:33:07 0.02, -75.28 0.83, -78.85 406.95 80
8 03/23/2021 13:09:47 0.02, -75.29 -0.29, -73.87 161.37 80
9 03/25/2021 01:31:28 -0.02, -75.28 -0.71, -78.51 367.92 80
10 03/26/2021 01:08:07 -0.02, -75.29 0.35, -73.53 200.63 80
